CZ-6A DEB

Satellite information

Favourite Embed

Satellite Type and Status

DEBRISIN ORBIT

Key statistics

Satellite CZ-6A DEB at a glance.

Uptime

444

Days in orbit

Revolutions

≈ 14.9

Per day

Orbit

LEO

Low Earth Orbit

Inclination

89.2

Latest

Satellite identification and parameters

Extended collection of information and parameters for CZ-6A DEB.

Object identification

Identified? True

Debris? True

Object name: CZ-6A DEB

International designator: 2024-140ABG

Object number (NORAD): 61498

Object ID (CCSDS): 61498

Country: PEOPLES REPUBLIC OF CHINA (PRC)

Current information (Y/N): Y

RCS size: SMALL

Orbital parameters

Period: 96.371 minutes

Inclination: 89.2251 deg

SMA: 6962.937 km

Apoapsis: 649.983 km

Periapsis: 519.621 km

RAAN: 309.8791 deg

Eccentricy: 0.0093611

Argument of periapsis: 230.6588 deg

Mean anomaly: 128.6321 deg

Mean motion: 14.94218384 rev/day

Mean motion (dot): 0.00049181 rev/day2

B* drag term: 0.0041848025 1/REarth

Two-line elements (TLE)

Creation date: Oct. 23, 2025, 6:40 p.m.

Reference frame: TEME

Reference center: EARTH

Epoch: Oct. 23, 2025, 12:16 a.m. UTC

TLE line 0: 0 CZ-6A DEB

TLE line 1: 1 61498U 24140ABG 25296.01166159 .00049181 00000-0 41848-2 0 9992

TLE line 2: 2 61498 89.2251 309.8791 0093611 230.6588 128.6321 14.94218384 59355

Live tracking on map

Real-time ground track for satellite CZ-6A DEB.

In-orbit conjunctions

A list of the most updated potential collisions computed for object CZ-6A DEB.

Target Orbit TCA Probability of collision Miss distance Type
NOAA 16 DEB SSO 2024-12-16 23:49:19 0.0003028066 942.0 (m) DEBRIS
COSMOS 2251 DEB LEO 2024-12-16 02:22:59 0.0002953898 351.0 (m) DEBRIS
COSMOS 1570 LEO 2024-10-23 14:53:48 0.000142551 210.0 (m) PAYLOAD

Associated space launch

18 Low Earth Orbit communication satellites with Ku, Q and V band payloads for the G60 constellation operated by Shanghai Spacecom Satellite Technology (SSST) with funding backed by the Shanghai local government. Initial constellation will consist of 1296 satellites by 2027 with long term plans to expand it to 12000 satellites.

CZ-6A DEB was lifted into orbit during the mission ‘Long March 6A | G60 Polar Group 01’, on board a Long March 6A space rocket.

The launch took place on Aug. 6, 2024, 6:42 a.m. from Launch Complex 9A.

For more information about the launch, click the button.

Launch to space Long March 6A | G60 Polar Group 01
Long March 6A | G60 Polar Group 01

Agency: N/A

Status: Launch Successful

Launch date: Aug. 6, 2024, 6:42 a.m. UTC

Rocket: Long March 6A

Launch pad: Launch Complex 9A

Location: Taiyuan Satellite Launch Center, People's Republic of China

...

Latest news about this satellite

News about space launch
Brightness of first Chinese broadband constellation satellites alarms astronomers

The first satellites of a Chinese broadband constellation are significantly brighter than those of Western systems, posing a new challenge for astronomers.

News about space launch
Chinese rocket stage breaks up into cloud of more than 700 pieces of space debris

HELSINKI — A Chinese Long March 6A rocket’s upper stage has fragmented into a cloud of over 700 pieces of space debris, adding to concerns about long-term orbital safety. China […]

News about space launch
China's Thousand Sails Megaconstellation Kicks Off with Dangerous Debris Field

China's Thousand Sails Megaconstellation Kicks Off with Dangerous Debris Field


Newsletter sign-up

Weekly statistics, charts and insights to help you stay on top of the space industry.